1998-067HS

Last updated on Feb. 14, 2016, 9:35 a.m. UTC

1 41327U 98067HS  16045.10767397  .00276549  00000-0  33335-2 0  9995
2 41327  51.6470 316.6146 0006178 151.4851 208.6871 15.59298528  1610

Satellite is not in orbit.